Time,TemperatureF,DewpointF,PressureIn,WindDirection,WindDirectionDegrees,WindSpeedMPH,WindSpeedGustMPH,Humidity,HourlyPrecipIn,Conditions,Clouds,dailyrainin,SoftwareType,DateUTC
2013-03-14 00:12:00,24.0,16.0,30.11,NNW,338,30.0,42.0,72,0.00,,,0.00,,2013-03-14 04:12:00,
2013-03-14 00:22:00,24.0,16.0,30.11,NNW,346,27.0,37.0,72,0.00,,,0.00,,2013-03-14 04:22:00,
2013-03-14 00:32:00,24.0,16.0,30.11,NNW,331,29.0,39.0,72,0.00,,,0.00,,2013-03-14 04:32:00,
2013-03-14 00:42:00,24.0,16.0,30.11,NNW,331,29.0,39.0,72,0.00,,,0.00,,2013-03-14 04:42:00,
2013-03-14 00:53:00,23.0,15.0,30.11,NW,311,24.0,39.0,72,0.00,,,0.00,,2013-03-14 04:53:00,
2013-03-14 01:02:00,23.0,15.0,30.11,NNW,340,29.0,40.0,72,0.00,,,0.00,,2013-03-14 05:02:00,
2013-03-14 01:12:00,23.0,15.0,30.11,NNW,340,29.0,40.0,72,0.00,,,0.00,,2013-03-14 05:12:00,
2013-03-14 01:22:00,23.0,15.0,30.10,NNW,340,28.0,46.0,72,0.00,,,0.00,,2013-03-14 05:22:00,
2013-03-14 01:33:00,23.0,15.0,30.10,NNW,343,31.0,46.0,71,0.00,,,0.00,,2013-03-14 05:33:00,
2013-03-14 01:42:00,23.0,15.0,30.10,NNW,343,31.0,46.0,71,0.00,,,0.00,,2013-03-14 05:42:00,
2013-03-14 01:53:00,22.0,14.0,30.09,NNW,342,30.0,50.0,71,0.00,,,0.00,,2013-03-14 05:53:00,
2013-03-14 02:02:00,22.0,14.0,30.09,North,351,33.0,53.0,70,0.00,,,0.00,,2013-03-14 06:02:00,
2013-03-14 02:12:00,22.0,14.0,30.09,North,351,33.0,53.0,70,0.00,,,0.00,,2013-03-14 06:12:00,
2013-03-14 02:22:00,22.0,13.0,30.08,NNW,328,41.0,53.0,69,0.00,,,0.00,,2013-03-14 06:22:00,
2013-03-14 02:33:00,22.0,13.0,30.09,NNW,347,32.0,51.0,69,0.00,,,0.00,,2013-03-14 06:33:00,
2013-03-14 02:42:00,22.0,13.0,30.09,NNW,347,32.0,51.0,69,0.00,,,0.00,,2013-03-14 06:42:00,
2013-03-14 02:52:00,22.0,13.0,30.09,NW,312,44.0,57.0,69,0.00,,,0.00,,2013-03-14 06:52:00,
2013-03-14 03:02:00,22.0,14.0,30.09,NW,315,41.0,53.0,70,0.00,,,0.00,,2013-03-14 07:02:00,
2013-03-14 03:12:00,22.0,14.0,30.09,NW,315,41.0,53.0,70,0.00,,,0.00,,2013-03-14 07:12:00,
2013-03-14 03:22:00,21.0,13.0,30.09,NNW,329,39.0,59.0,70,0.00,,,0.00,,2013-03-14 07:22:00,
2013-03-14 03:32:00,22.0,13.0,30.09,NNW,331,44.0,55.0,69,0.00,,,0.00,,2013-03-14 07:32:00,
2013-03-14 03:43:00,22.0,13.0,30.09,NNW,331,44.0,55.0,69,0.00,,,0.00,,2013-03-14 07:43:00,
2013-03-14 03:52:00,21.0,12.0,30.10,NNW,346,38.0,57.0,69,0.00,,,0.00,,2013-03-14 07:52:00,
2013-03-14 04:02:00,21.0,13.0,30.10,NNW,342,38.0,49.0,70,0.00,,,0.00,,2013-03-14 08:02:00,
2013-03-14 04:12:00,21.0,13.0,30.10,NNW,342,38.0,49.0,70,0.00,,,0.00,,2013-03-14 08:12:00,
2013-03-14 04:22:00,21.0,13.0,30.12,NNE,12,29.0,48.0,72,0.00,,,0.00,,2013-03-14 08:22:00,
2013-03-14 04:32:00,21.0,14.0,30.13,North,1,22.0,36.0,73,0.00,,,0.00,,2013-03-14 08:32:00,
2013-03-14 04:42:00,21.0,14.0,30.13,North,1,22.0,36.0,73,0.00,,,0.00,,2013-03-14 08:42:00,
2013-03-14 04:52:00,21.0,14.0,30.12,NNW,335,29.0,44.0,74,0.00,,,0.00,,2013-03-14 08:52:00,
2013-03-14 05:02:00,20.0,13.0,30.12,NNW,329,29.0,43.0,74,0.00,,,0.00,,2013-03-14 09:02:00,
2013-03-14 05:12:00,20.0,13.0,30.12,NNW,329,29.0,43.0,74,0.00,,,0.00,,2013-03-14 09:12:00,
2013-03-14 05:22:00,20.0,14.0,30.11,North,349,31.0,49.0,76,0.00,,,0.00,,2013-03-14 09:22:00,
2013-03-14 05:32:00,20.0,14.0,30.12,NNW,342,23.0,41.0,76,0.00,,,0.00,,2013-03-14 09:32:00,
2013-03-14 05:42:00,20.0,14.0,30.12,NNW,342,23.0,41.0,76,0.00,,,0.00,,2013-03-14 09:42:00,
2013-03-14 05:52:00,20.0,14.0,30.12,NNW,342,34.0,39.0,78,0.00,,,0.00,,2013-03-14 09:52:00,
2013-03-14 06:02:00,20.0,14.0,30.13,NNW,330,31.0,40.0,78,0.00,,,0.00,,2013-03-14 10:02:00,
2013-03-14 06:12:00,20.0,14.0,30.13,NNW,330,31.0,40.0,78,0.00,,,0.00,,2013-03-14 10:12:00,
2013-03-14 06:22:00,20.0,14.0,30.14,NNW,330,25.0,34.0,77,0.00,,,0.00,,2013-03-14 10:22:00,
2013-03-14 06:32:00,20.0,14.0,30.14,NNW,342,32.0,42.0,76,0.00,,,0.00,,2013-03-14 10:32:00,
2013-03-14 06:42:00,20.0,14.0,30.14,NNW,342,32.0,42.0,76,0.00,,,0.00,,2013-03-14 10:42:00,
2013-03-14 06:52:00,20.0,14.0,30.15,NNW,330,31.0,44.0,76,0.00,,,0.00,,2013-03-14 10:52:00,
2013-03-14 07:02:00,20.0,13.0,30.14,NNW,338,33.0,46.0,75,0.00,,,0.00,,2013-03-14 11:02:00,
2013-03-14 07:12:00,20.0,13.0,30.14,NNW,338,33.0,46.0,75,0.00,,,0.00,,2013-03-14 11:12:00,
2013-03-14 07:22:00,19.0,12.0,30.16,NNW,333,28.0,42.0,75,0.00,,,0.00,,2013-03-14 11:22:00,
2013-03-14 07:33:00,19.0,12.0,30.17,NNW,336,30.0,38.0,75,0.00,,,0.00,,2013-03-14 11:33:00,
2013-03-14 07:42:00,19.0,12.0,30.17,NNW,336,30.0,38.0,75,0.00,,,0.00,,2013-03-14 11:42:00,
2013-03-14 07:53:00,19.0,13.0,30.18,NNW,335,26.0,38.0,76,0.00,,,0.00,,2013-03-14 11:53:00,
2013-03-14 08:02:00,19.0,13.0,30.18,NNW,342,30.0,39.0,76,0.00,,,0.00,,2013-03-14 12:02:00,
2013-03-14 08:12:00,19.0,13.0,30.18,NNW,342,30.0,39.0,76,0.00,,,0.00,,2013-03-14 12:12:00,
2013-03-14 08:22:00,19.0,13.0,30.19,North,349,31.0,40.0,76,0.00,,,0.00,,2013-03-14 12:22:00,
2013-03-14 08:33:00,19.0,13.0,30.19,North,6,31.0,40.0,77,0.00,,,0.00,,2013-03-14 12:33:00,
2013-03-14 08:42:00,19.0,13.0,30.19,North,6,31.0,40.0,77,0.00,,,0.00,,2013-03-14 12:42:00,
2013-03-14 08:52:00,19.0,13.0,30.20,NNW,340,34.0,41.0,76,0.00,,,0.00,,2013-03-14 12:52:00,
2013-03-14 09:02:00,19.0,13.0,30.20,NNW,344,32.0,41.0,76,0.00,,,0.00,,2013-03-14 13:02:00,
2013-03-14 09:13:00,19.0,13.0,30.20,NNW,344,32.0,41.0,76,0.00,,,0.00,,2013-03-14 13:13:00,
2013-03-14 09:22:00,20.0,12.0,30.21,NNW,342,34.0,39.0,72,0.00,,,0.00,,2013-03-14 13:22:00,
2013-03-14 09:32:00,22.0,11.0,30.20,NNW,347,27.0,34.0,63,0.00,,,0.00,,2013-03-14 13:32:00,
2013-03-14 09:43:00,22.0,11.0,30.20,NNW,347,27.0,34.0,63,0.00,,,0.00,,2013-03-14 13:43:00,
2013-03-14 09:52:00,24.0,11.0,30.21,North,6,24.0,30.0,57,0.00,,,0.00,,2013-03-14 13:52:00,
2013-03-14 10:02:00,24.0,11.0,30.22,NNE,19,23.0,30.0,56,0.00,,,0.00,,2013-03-14 14:02:00,
2013-03-14 10:12:00,24.0,11.0,30.22,NNE,19,23.0,30.0,56,0.00,,,0.00,,2013-03-14 14:12:00,
2013-03-14 10:22:00,26.0,8.0,30.22,NNE,17,21.0,28.0,46,0.00,,,0.00,,2013-03-14 14:22:00,
2013-03-14 10:32:00,25.0,9.0,30.23,North,9,19.0,26.0,49,0.00,,,0.00,,2013-03-14 14:32:00,
2013-03-14 10:42:00,25.0,9.0,30.23,North,9,19.0,26.0,49,0.00,,,0.00,,2013-03-14 14:42:00,
2013-03-14 10:53:00,25.0,12.0,30.24,North,357,9.0,19.0,57,0.00,,,0.00,,2013-03-14 14:53:00,
2013-03-14 11:02:00,25.0,13.0,30.24,North,5,9.0,18.0,60,0.00,,,0.00,,2013-03-14 15:02:00,
2013-03-14 11:12:00,25.0,13.0,30.24,North,5,9.0,18.0,60,0.00,,,0.00,,2013-03-14 15:12:00,
2013-03-14 11:22:00,25.0,12.0,30.24,NNW,347,4.0,13.0,58,0.00,,,0.00,,2013-03-14 15:22:00,
2013-03-14 11:33:00,26.0,13.0,30.24,NNE,15,7.0,11.0,57,0.00,,,0.00,,2013-03-14 15:33:00,
2013-03-14 11:43:00,26.0,13.0,30.24,NNE,15,7.0,11.0,57,0.00,,,0.00,,2013-03-14 15:43:00,
2013-03-14 11:52:00,26.0,12.0,30.24,North,360,7.0,12.0,56,0.00,,,0.00,,2013-03-14 15:52:00,
2013-03-14 12:03:00,26.0,13.0,30.25,NNW,346,11.0,18.0,57,0.00,,,0.00,,2013-03-14 16:03:00,
2013-03-14 12:13:00,26.0,13.0,30.25,NNW,346,11.0,18.0,57,0.00,,,0.00,,2013-03-14 16:13:00,
2013-03-14 12:23:00,27.0,13.0,30.26,NW,319,13.0,19.0,56,0.00,,,0.00,,2013-03-14 16:23:00,
2013-03-14 12:32:00,27.0,12.0,30.26,North,351,13.0,19.0,52,0.00,,,0.00,,2013-03-14 16:32:00,
2013-03-14 12:42:00,27.0,12.0,30.26,North,351,13.0,19.0,52,0.00,,,0.00,,2013-03-14 16:42:00,
2013-03-14 12:52:00,28.0,8.0,30.25,NNW,338,13.0,18.0,43,0.00,,,0.00,,2013-03-14 16:52:00,
2013-03-14 13:02:00,29.0,8.0,30.25,North,349,14.0,21.0,40,0.00,,,0.00,,2013-03-14 17:02:00,
2013-03-14 13:13:00,29.0,8.0,30.25,North,349,14.0,21.0,40,0.00,,,0.00,,2013-03-14 17:13:00,
2013-03-14 13:23:00,30.0,4.0,30.25,NW,324,16.0,24.0,32,0.00,,,0.00,,2013-03-14 17:23:00,
2013-03-14 13:33:00,30.0,2.0,30.24,NW,308,16.0,27.0,30,0.00,,,0.00,,2013-03-14 17:33:00,
2013-03-14 13:42:00,30.0,2.0,30.24,NW,308,16.0,27.0,30,0.00,,,0.00,,2013-03-14 17:42:00,
2013-03-14 13:53:00,32.0,2.0,30.24,NW,315,17.0,30.0,27,0.00,,,0.00,,2013-03-14 17:53:00,
2013-03-14 14:03:00,32.0,3.0,30.25,North,1,16.0,25.0,29,0.00,,,0.00,,2013-03-14 18:03:00,
2013-03-14 14:12:00,32.0,3.0,30.25,North,1,16.0,25.0,29,0.00,,,0.00,,2013-03-14 18:12:00,
2013-03-14 14:23:00,34.0,8.0,30.24,NNW,343,13.0,18.0,33,0.00,,,0.00,,2013-03-14 18:23:00,
2013-03-14 14:33:00,34.0,8.0,30.24,NNW,342,14.0,19.0,33,0.00,,,0.00,,2013-03-14 18:33:00,
2013-03-14 14:43:00,34.0,8.0,30.24,NNW,342,14.0,19.0,33,0.00,,,0.00,,2013-03-14 18:43:00,
2013-03-14 14:53:00,36.0,9.0,30.23,NNW,340,12.0,16.0,32,0.00,,,0.00,,2013-03-14 18:53:00,
2013-03-14 15:03:00,36.0,9.0,30.23,NNW,342,5.0,13.0,32,0.00,,,0.00,,2013-03-14 19:03:00,
2013-03-14 15:12:00,36.0,9.0,30.23,NNW,342,5.0,13.0,32,0.00,,,0.00,,2013-03-14 19:12:00,
2013-03-14 15:23:00,37.0,10.0,30.22,NNW,346,11.0,15.0,32,0.00,,,0.00,,2013-03-14 19:23:00,
2013-03-14 15:32:00,38.0,10.0,30.22,North,358,9.0,16.0,31,0.00,,,0.00,,2013-03-14 19:32:00,
2013-03-14 15:42:00,38.0,10.0,30.22,North,358,9.0,16.0,31,0.00,,,0.00,,2013-03-14 19:42:00,
2013-03-14 15:52:00,39.0,11.0,30.20,NW,317,8.0,10.0,31,0.00,,,0.00,,2013-03-14 19:52:00,
2013-03-14 16:02:00,39.0,11.0,30.20,NW,314,7.0,13.0,31,0.00,,,0.00,,2013-03-14 20:02:00,
2013-03-14 16:12:00,39.0,11.0,30.20,NW,314,7.0,13.0,31,0.00,,,0.00,,2013-03-14 20:12:00,
2013-03-14 16:22:00,40.0,11.0,30.20,WNW,302,5.0,11.0,30,0.00,,,0.00,,2013-03-14 20:22:00,
2013-03-14 16:32:00,39.0,11.0,30.20,NNW,335,8.0,14.0,31,0.00,,,0.00,,2013-03-14 20:32:00,
2013-03-14 16:42:00,39.0,11.0,30.20,NNW,335,8.0,14.0,31,0.00,,,0.00,,2013-03-14 20:42:00,
2013-03-14 16:52:00,40.0,11.0,30.19,NNW,327,7.0,13.0,30,0.00,,,0.00,,2013-03-14 20:52:00,
2013-03-14 17:03:00,40.0,10.0,30.19,NW,312,8.0,12.0,29,0.00,,,0.00,,2013-03-14 21:03:00,
2013-03-14 17:13:00,40.0,10.0,30.19,NW,312,8.0,12.0,29,0.00,,,0.00,,2013-03-14 21:13:00,
2013-03-14 17:22:00,40.0,12.0,30.19,NW,309,7.0,12.0,31,0.00,,,0.00,,2013-03-14 21:22:00,
2013-03-14 17:33:00,40.0,12.0,30.19,NNW,333,7.0,12.0,31,0.00,,,0.00,,2013-03-14 21:33:00,
2013-03-14 17:43:00,40.0,12.0,30.19,NNW,333,7.0,12.0,31,0.00,,,0.00,,2013-03-14 21:43:00,
2013-03-14 17:53:00,40.0,13.0,30.19,NNW,338,6.0,9.0,32,0.00,,,0.00,,2013-03-14 21:53:00,
2013-03-14 18:03:00,40.0,12.0,30.18,NNW,342,7.0,11.0,31,0.00,,,0.00,,2013-03-14 22:03:00,
2013-03-14 18:13:00,40.0,12.0,30.18,NNW,342,7.0,11.0,31,0.00,,,0.00,,2013-03-14 22:13:00,
2013-03-14 18:23:00,39.0,12.0,30.18,NNW,342,6.0,9.0,33,0.00,,,0.00,,2013-03-14 22:23:00,
2013-03-14 18:33:00,39.0,12.0,30.18,NNW,344,5.0,9.0,33,0.00,,,0.00,,2013-03-14 22:33:00,
2013-03-14 18:42:00,39.0,12.0,30.18,NNW,344,5.0,9.0,33,0.00,,,0.00,,2013-03-14 22:42:00,
2013-03-14 18:53:00,39.0,13.0,30.18,NNW,345,7.0,11.0,34,0.00,,,0.00,,2013-03-14 22:53:00,
2013-03-14 19:03:00,39.0,13.0,30.18,North,352,8.0,12.0,34,0.00,,,0.00,,2013-03-14 23:03:00,
2013-03-14 19:12:00,39.0,13.0,30.18,North,352,8.0,12.0,34,0.00,,,0.00,,2013-03-14 23:12:00,
2013-03-14 19:23:00,39.0,13.0,30.18,North,353,7.0,12.0,34,0.00,,,0.00,,2013-03-14 23:23:00,
2013-03-14 19:33:00,38.0,12.0,30.18,NNW,346,10.0,11.0,34,0.00,,,0.00,,2013-03-14 23:33:00,
2013-03-14 19:42:00,38.0,12.0,30.18,NNW,346,10.0,11.0,34,0.00,,,0.00,,2013-03-14 23:42:00,
2013-03-14 19:54:00,38.0,12.0,30.18,North,356,10.0,11.0,34,0.00,,,0.00,,2013-03-14 23:54:00,
2013-03-14 20:02:00,37.0,11.0,30.18,NNW,348,11.0,12.0,34,0.00,,,0.00,,2013-03-15 00:02:00,
2013-03-14 20:12:00,37.0,12.0,30.18,North,356,12.0,17.0,35,0.00,,,0.00,,2013-03-15 00:12:00,
2013-03-14 20:23:00,37.0,12.0,30.18,North,356,12.0,17.0,35,0.00,,,0.00,,2013-03-15 00:23:00,
2013-03-14 20:32:00,36.0,10.0,30.17,North,349,17.0,21.0,34,0.00,,,0.00,,2013-03-15 00:32:00,
2013-03-14 20:42:00,36.0,10.0,30.17,North,349,17.0,21.0,34,0.00,,,0.00,,2013-03-15 00:42:00,
2013-03-14 20:52:00,36.0,11.0,30.18,North,354,16.0,17.0,35,0.00,,,0.00,,2013-03-15 00:52:00,
2013-03-14 21:02:00,36.0,12.0,30.18,NNW,338,14.0,20.0,36,0.00,,,0.00,,2013-03-15 01:02:00,
2013-03-14 21:12:00,36.0,12.0,30.18,NNW,338,14.0,20.0,36,0.00,,,0.00,,2013-03-15 01:12:00,
2013-03-14 21:22:00,35.0,9.0,30.18,NNW,338,13.0,16.0,34,0.00,,,0.00,,2013-03-15 01:22:00,
2013-03-14 21:32:00,36.0,8.0,30.18,NNW,335,13.0,18.0,31,0.00,,,0.00,,2013-03-15 01:32:00,
2013-03-14 21:42:00,36.0,8.0,30.18,NNW,335,13.0,18.0,31,0.00,,,0.00,,2013-03-15 01:42:00,
2013-03-14 21:52:00,35.0,7.0,30.18,NNW,328,15.0,21.0,30,0.00,,,0.00,,2013-03-15 01:52:00,
2013-03-14 22:03:00,35.0,9.0,30.18,NNW,342,16.0,18.0,33,0.00,,,0.00,,2013-03-15 02:03:00,
2013-03-14 22:12:00,35.0,9.0,30.18,NNW,342,16.0,18.0,33,0.00,,,0.00,,2013-03-15 02:12:00,
2013-03-14 22:22:00,34.0,7.0,30.18,NNW,342,17.0,22.0,31,0.00,,,0.00,,2013-03-15 02:22:00,
2013-03-14 22:32:00,35.0,5.0,30.18,NNW,338,18.0,22.0,28,0.00,,,0.00,,2013-03-15 02:32:00,
2013-03-14 22:42:00,35.0,5.0,30.18,NNW,338,18.0,22.0,28,0.00,,,0.00,,2013-03-15 02:42:00,
2013-03-14 22:52:00,35.0,7.0,30.19,NNW,340,20.0,24.0,30,0.00,,,0.00,,2013-03-15 02:52:00,
2013-03-14 23:02:00,35.0,5.0,30.19,NNW,335,21.0,24.0,28,0.00,,,0.00,,2013-03-15 03:02:00,
2013-03-14 23:12:00,35.0,5.0,30.19,NNW,335,21.0,24.0,28,0.00,,,0.00,,2013-03-15 03:12:00,
2013-03-14 23:22:00,34.0,9.0,30.19,NNW,333,21.0,26.0,34,0.00,,,0.00,,2013-03-15 03:22:00,
2013-03-14 23:33:00,35.0,2.0,30.19,NNW,333,20.0,25.0,24,0.00,,,0.00,,2013-03-15 03:33:00,
2013-03-14 23:43:00,35.0,2.0,30.19,NNW,333,20.0,25.0,24,0.00,,,0.00,,2013-03-15 03:43:00,
2013-03-14 23:53:00,34.0,6.0,30.18,NNW,335,19.0,22.0,30,0.00,,,0.00,,2013-03-15 03:53:00,